Location: Kaseke
(18.0171°S, 31.0526°E)
Time: 12:34:46
(UTC+00:00)

Cosmos 2279 Rocket - Pass Details

Date: 14 July 2020
Orbit: 964 x 979 km, 82.9° (Epoch: 07 August)

Event Time Altitude Azimuth Distance (km) Brightness Sun altitude
Exits shadow 02:20:40 68° 334° (NNW) 1,046 4.0 -29.4°
Drops below altitude 10° 02:26:06 10° 359° (N) 2,707 6.5 -28.2°
Sets 02:28:35 0° 0° (N) 3,646 7.2 -27.6°
